[ hide orbit diagram ]
For accurate long-term ephemerides, please instead use our Horizons system.This orbit viewer was implemented using two-body methods, and hence should not be used for determining accurate long-term trajectories (over several years or decades) or planetary encounter circumstances.
Orbital Elements at Epoch 2459000.5 (2020-May-31.0) TDB
Reference: JPL 17 (heliocentric ecliptic J2000)
Element | Value | Uncertainty (1-sigma) | Units |
e | .09913353954895342 | 3.506e-08 | |
a | 2.311527562034502 | 8.2893e-09 | au |
q | 2.082377653045059 | 8.3382e-08 | au |
i | 5.05673505909169 | 3.4061e-06 | deg |
node | 309.1177993680963 | 4.4604e-05 | deg |
peri | 104.9898020709307 | 4.8864e-05 | deg |
M | 295.6947143638421 | 1.867e-05 | deg |
tp | 2459229.793219402260 (2021-Jan-15.29321940) | 6.6564e-05 | TDB |
period | 1283.651229727211 3.51 | 6.9049e-06 1.89e-08 | d yr |
n | .2804500098336709 | 1.5086e-09 | deg/d |
Q | 2.540677471023946 | 9.111e-09 | au |
|
| | Orbit Determination Parameters
Additional Information
|
[ show covariance matrix ]
Physical Parameter Table
Parameter |
Symbol |
Value |
Units |
Sigma |
Reference |
Notes |
absolute magnitude |
H |
16.4 |
|
n/a |
MPO436335 |
|
|
79354 Brundibár | Discovered 1997 Jan. 16 by M. Tichy and J. Ticha at Klet. |
Brundibár is a children's opera by Jewish Czech composer Hans Krása and librettist Adolf Hoffmeister, originally performed by the children of Theresienstadt ghetto for Jews in 1943. The name comes from a Czech word for a bumble-bee. |
NOTE: some special characters may not display properly (any characters within {} are an attempt to place the proper accent above a character) |
Reference: MPC batch dated 2014-05-14 | Last Updated: 2014-05-15 |
|
Alternate Designations
1997 BB = 1997 CS1 = 1999 TQ193 |
|
|